GFSNGP_500_rhum_276.txt.gz
RH
15 4 3 4 5 5 5 7 9 13 16 18 17 18 18 17 17 19 27 28 25 21 18 22 27 30 32 35 37 37 37 36 34 28 17 13 8 22 50 52 49 39 32 24
8 3 3 4 5 5 6 8 11 15 16 16 15 18 16 17 17 21 23 25 25 18 16 24 28 29 33 34 37 39 39 39 34 32 21 16 11 11 38 48 47 43 35 28
9 6 3 4 5 6 8 10 12 14 13 13 16 17 16 17 17 20 22 25 24 17 18 23 25 30 34 36 39 42 41 40 35 33 26 18 16 9 17 49 46 43 38 32
13 6 3 4 6 7 9 10 13 14 13 12 15 16 16 17 16 19 24 25 20 17 18 19 26 32 35 38 41 43 43 42 37 34 30 21 17 13 11 30 51 44 38 34
22 10 3 4 6 8 8 8 12 12 12 12 13 14 14 13 14 20 23 23 21 20 16 22 25 30 36 39 42 42 45 44 39 34 31 25 20 16 9 17 43 48 39 35
31 20 4 5 7 8 9 9 11 12 13 11 11 11 12 11 14 20 23 23 20 19 18 21 21 31 35 40 43 43 44 44 43 36 32 28 23 17 12 9 19 44 39 34
35 28 5 5 8 7 7 10 10 12 11 11 10 10 11 11 15 20 23 22 20 19 18 20 25 33 36 40 42 45 44 45 47 41 34 29 24 19 15 10 17 24 41 35
38 41 7 5 7 8 7 8 11 13 10 10 10 10 11 12 15 18 23 23 18 17 19 20 25 31 36 41 44 44 44 45 48 46 38 32 26 22 15 11 13 35 33 40
39 39 17 4 6 7 6 8 11 10 8 9 10 10 12 13 16 20 22 20 16 18 19 22 26 31 36 41 45 45 46 46 48 49 43 36 29 24 17 12 14 28 42 41
42 39 13 5 6 6 6 8 10 9 8 9 9 10 12 14 16 19 22 19 16 17 18 25 30 33 34 38 43 45 47 48 49 51 46 40 33 26 21 14 12 27 44 47
41 45 19 5 6 6 7 8 8 10 9 8 9 11 12 14 17 20 21 18 16 17 22 28 32 33 32 37 41 44 47 49 50 53 50 42 36 29 23 16 10 13 35 48
45 40 27 6 6 6 7 8 8 9 9 8 10 12 13 15 18 19 22 17 16 19 24 27 30 31 30 35 39 43 48 52 53 55 54 48 41 33 25 19 11 10 20 39
40 41 27 6 6 5 7 8 8 9 8 8 11 12 14 16 18 19 21 16 16 18 23 30 32 31 32 34 34 39 49 53 55 57 59 52 44 39 29 22 16 8 12 27
27 33 22 6 6 5 7 6 7 7 7 8 11 14 16 16 18 19 19 15 15 19 25 32 33 32 32 29 30 36 48 54 57 59 59 56 48 42 34 25 21 12 9 18
27 28 14 8 6 6 6 6 7 7 7 9 12 16 17 17 18 19 19 19 19 21 26 30 29 29 29 24 27 36 47 55 58 59 61 57 51 44 39 30 24 17 9 10
21 33 28 11 6 6 6 6 6 6 7 10 13 18 17 17 18 20 22 20 21 23 27 30 28 27 24 24 29 37 46 53 59 60 59 59 53 47 42 35 27 22 13 9
14 35 37 17 7 6 6 5 5 6 8 10 14 18 18 17 18 21 23 21 22 27 30 30 28 25 22 33 38 41 46 52 59 62 58 58 56 50 44 40 32 25 18 10
13 28 43 32 8 8 6 5 5 6 8 10 15 19 20 20 20 22 24 24 25 27 30 29 26 24 26 43 49 49 48 51 60 62 60 57 58 54 48 44 37 29 25 14
13 31 48 38 14 10 6 5 5 6 8 10 14 21 23 23 22 25 28 26 26 28 32 28 26 30 38 52 57 57 53 52 60 64 61 60 59 58 51 46 43 36 27 22
27 34 45 41 19 8 6 5 5 5 7 10 14 21 25 26 26 29 30 29 28 32 32 29 33 41 49 57 63 62 58 53 61 67 65 63 62 61 57 51 46 41 32 28
22 28 39 40 18 10 8 5 5 6 7 9 13 21 27 28 27 29 32 29 31 33 33 36 43 50 56 64 69 69 60 60 61 68 69 65 63 63 62 56 50 46 40 31
28 36 40 30 14 12 7 6 9 11 10 10 12 18 24 27 29 32 32 30 33 34 38 44 49 54 61 68 76 77 74 63 66 68 70 68 66 65 65 59 54 50 45 38
26 42 37 16 13 14 9 10 16 17 14 12 12 16 21 26 30 32 31 31 34 36 42 49 54 59 67 73 79 78 78 77 68 69 71 70 67 67 67 64 58 53 49 44
30 39 49 42 32 30 26 20 20 21 16 14 16 18 18 20 23 28 32 32 34 36 44 53 59 64 71 76 81 84 81 82 72 70 73 72 71 70 71 69 63 56 52 47
37 39 46 52 47 40 38 33 28 28 24 17 17 20 22 25 24 23 26 30 33 37 47 57 65 70 75 80 83 87 88 86 80 72 75 74 73 73 73 72 67 60 55 51
32 32 37 46 51 49 41 37 39 45 34 20 18 20 20 22 27 30 31 33 36 42 52 61 69 74 77 82 87 90 92 88 86 74 76 78 76 76 77 75 72 64 58 51
28 32 36 42 48 54 56 56 54 48 29 21 20 21 22 24 27 33 38 41 43 48 56 65 71 78 80 84 89 94 96 91 91 79 75 81 83 81 81 80 76 68 61 53

GFSNGP_500_rhum_279.txt.gz
RH
35 32 12 4 3 4 4 5 6 9 10 14 12 11 12 12 12 12 14 18 20 12 8 7 10 16 24 33 37 37 40 42 44 40 34 31 26 20 12 12 48 49 46 40
34 28 13 5 3 4 4 5 8 9 13 13 11 11 11 10 10 11 15 20 18 10 6 7 13 18 27 34 35 38 40 43 45 43 36 32 28 22 14 11 32 54 45 41
26 22 14 8 4 4 5 7 9 11 13 12 11 10 10 10 9 11 16 20 15 6 6 11 14 21 30 32 35 39 42 43 47 46 40 33 28 24 16 11 22 55 51 41
21 21 19 9 4 4 6 8 9 12 13 12 10 10 9 9 9 12 16 18 8 6 8 12 15 24 28 30 37 40 43 45 48 48 41 35 30 26 19 12 18 42 55 44
23 24 22 14 4 4 7 8 10 12 13 11 9 9 9 8 11 13 16 13 6 7 9 12 19 24 27 32 36 40 45 48 49 49 42 37 31 27 20 11 12 30 52 49
25 27 29 16 5 4 7 8 9 12 12 8 8 8 8 9 12 14 15 12 8 9 10 13 21 24 27 31 35 41 46 50 50 50 45 38 32 26 21 12 9 17 29 48
22 22 32 22 6 4 6 8 8 12 9 7 8 8 8 9 12 14 14 12 11 10 11 16 20 24 25 31 32 42 48 51 51 51 47 39 33 27 22 15 8 10 24 30
18 22 36 28 9 4 6 8 8 10 7 6 7 7 8 10 13 14 14 12 11 11 12 15 22 22 26 29 32 42 48 51 52 52 49 42 35 28 23 20 8 9 18 30
19 34 39 40 21 5 6 7 8 7 6 7 7 8 9 11 14 15 14 13 13 12 12 16 19 22 28 26 33 44 48 51 52 51 48 46 39 31 24 22 12 8 15 29
21 34 37 40 27 5 6 8 7 6 7 7 7 8 10 12 14 15 14 14 13 12 13 17 19 22 27 26 35 46 48 50 53 50 47 45 41 35 27 23 18 7 9 20
16 22 35 46 24 5 6 8 7 6 7 7 7 8 10 13 15 15 15 14 14 13 15 17 19 23 25 31 42 48 50 51 52 50 46 44 41 36 30 23 21 11 6 10
21 24 43 47 39 7 6 7 6 6 7 7 7 8 12 15 15 15 15 13 15 14 16 17 20 25 24 35 47 49 52 53 54 52 50 46 43 39 33 27 20 17 6 6
19 20 32 45 29 6 6 6 6 6 6 7 7 8 13 16 16 14 14 15 18 16 17 19 22 25 24 42 51 53 54 56 57 56 51 50 47 44 37 30 24 18 12 5
9 26 30 34 21 8 6 6 5 6 6 6 7 10 14 17 17 16 16 18 19 18 19 20 23 24 25 44 53 56 59 59 60 59 54 50 50 47 42 35 29 22 17 9
8 20 26 26 19 9 6 6 6 5 6 6 7 10 14 17 19 17 17 18 20 21 19 21 24 24 29 44 53 58 61 62 61 60 58 54 50 49 46 40 33 28 20 15
6 9 24 34 22 12 8 6 6 5 6 5 7 9 12 17 19 18 18 19 22 24 20 22 25 26 35 46 53 60 60 62 65 62 61 58 53 50 50 44 39 32 26 20
6 6 12 35 38 23 13 6 6 5 5 5 6 9 11 16 19 20 19 20 23 26 22 24 27 30 40 48 55 62 59 62 65 68 65 62 57 54 51 49 44 38 32 24
7 7 9 22 36 41 30 8 7 6 5 5 6 8 10 14 18 21 23 23 23 27 25 25 28 33 40 49 55 63 63 63 67 68 68 66 61 57 54 51 49 44 37 30
7 6 9 16 23 39 44 17 7 6 6 6 6 7 9 11 15 20 22 22 24 27 25 27 32 36 40 47 56 63 63 65 66 71 71 68 65 60 58 55 52 50 43 37
4 6 12 21 26 43 48 24 8 6 6 6 6 7 8 9 12 16 20 23 27 29 25 28 33 38 42 49 56 62 65 67 70 74 74 72 69 64 62 59 57 55 50 42
5 8 13 20 26 36 49 19 8 8 7 6 9 10 10 11 12 14 16 17 21 24 24 26 30 36 44 52 57 62 63 69 74 75 77 75 72 68 66 63 61 60 56 49
10 13 17 21 27 39 38 16 10 8 7 9 16 20 17 12 13 16 20 22 23 22 22 26 31 37 44 54 62 66 69 71 78 80 79 80 76 72 69 67 65 65 63 56
6 14 17 19 30 37 34 20 16 16 14 16 19 22 20 16 15 15 18 23 26 29 29 32 37 43 47 55 64 69 74 79 81 84 85 85 79 76 72 71 70 69 69 64
7 15 21 25 29 34 39 41 35 35 31 25 25 27 28 22 19 20 23 27 32 34 36 38 41 46 52 59 64 73 80 85 88 88 90 88 83 78 76 73 74 73 74 70
9 19 22 27 28 29 34 39 44 46 44 37 38 43 43 29 21 21 24 28 32 38 44 46 47 52 59 66 75 83 87 88 91 91 94 91 89 81 80 78 78 78 77 74
14 18 21 20 20 24 30 36 43 48 51 53 53 48 31 22 22 22 24 27 29 34 44 51 55 62 69 75 82 89 92 96 94 95 98 94 92 84 83 84 83 82 79 78
12 12 10 15 18 21 28 33 35 43 49 49 44 37 28 26 26 24 25 27 31 33 40 51 60 68 79 86 93 97 99 100 97 97 99 97 97 88 85 88 88 85 82 81

GFSNGP_500_rhum_282.txt.gz
RH
11 20 31 30 15 5 3 4 5 5 8 9 10 9 6 8 9 8 10 12 8 5 6 9 10 10 18 26 32 42 46 50 50 48 46 39 34 29 20 10 13 37 50 44
14 25 32 28 13 4 4 4 4 6 8 8 10 8 6 8 9 9 11 12 7 6 7 8 8 12 19 27 36 43 45 49 49 48 46 39 32 29 22 9 12 28 56 44
19 31 26 22 9 7 5 4 5 7 8 9 9 6 7 8 9 9 12 11 7 7 8 7 8 13 22 27 39 44 45 47 49 49 46 38 31 27 24 9 10 26 53 51
20 30 21 18 16 15 8 4 6 7 7 10 8 6 7 8 8 11 13 10 8 6 7 7 10 15 24 29 41 44 45 46 48 48 44 37 32 26 23 12 8 21 40 55
19 24 22 22 20 17 8 4 6 7 8 7 7 6 8 8 8 12 13 10 9 6 7 7 11 17 24 35 40 44 46 46 46 44 41 37 31 25 21 17 6 12 32 52
24 25 24 23 24 22 8 4 6 7 7 6 6 6 7 8 9 12 13 12 8 6 8 8 12 16 23 38 42 45 46 49 46 43 41 38 32 26 19 18 7 6 14 30
24 21 22 28 31 30 17 6 6 7 6 6 6 6 7 8 10 13 13 12 9 8 8 9 12 17 22 38 44 45 47 49 48 44 42 39 34 28 22 17 12 4 5 12
21 19 22 23 30 31 17 6 7 7 6 6 6 6 7 9 11 14 13 11 10 9 9 9 13 18 21 36 43 45 47 50 51 47 44 41 37 31 24 19 16 6 5 6
19 19 23 24 34 38 34 7 6 7 6 6 6 6 8 10 13 14 14 13 10 10 11 10 12 18 22 35 44 45 45 50 52 50 46 44 41 35 28 22 17 12 4 5
17 19 21 25 32 42 37 8 6 7 6 6 6 6 8 11 14 14 14 14 11 12 12 12 13 16 22 33 44 46 44 46 52 53 48 44 42 38 32 26 20 15 8 4
17 14 13 21 24 38 38 7 7 6 6 6 6 7 8 11 14 15 15 14 13 13 14 14 13 17 23 28 38 46 46 46 50 54 52 46 43 40 35 30 24 17 12 6
13 10 22 28 36 46 40 7 6 6 6 6 6 7 8 10 14 16 15 14 14 13 17 15 14 17 23 28 36 44 48 48 50 51 54 51 45 42 40 34 29 24 18 11
11 9 13 28 34 46 36 8 6 6 6 6 7 7 7 11 13 16 16 15 14 15 17 17 14 17 22 28 38 46 51 51 53 54 54 54 51 45 42 39 34 30 23 18
9 10 11 20 23 28 29 12 6 6 6 7 7 7 7 10 12 15 17 16 14 15 17 17 15 19 24 29 37 44 52 54 55 58 58 57 55 51 46 43 39 34 29 23
8 6 10 13 27 26 22 12 6 6 6 7 7 7 6 8 10 14 16 16 15 15 16 18 17 19 24 29 35 42 51 57 59 58 61 61 59 55 50 46 43 39 34 29
8 6 6 8 14 25 27 14 8 6 6 7 7 7 6 7 9 10 13 16 17 16 16 20 20 19 22 27 34 41 50 55 58 59 63 63 64 59 54 50 48 46 41 36
8 7 6 6 6 13 27 34 23 9 7 6 6 7 7 7 8 9 10 13 15 17 19 22 20 17 20 26 34 42 49 57 60 61 66 68 66 65 60 55 51 50 46 42
8 9 8 7 6 8 16 22 40 28 8 7 7 7 7 6 7 8 10 11 12 13 15 17 18 18 22 30 37 46 51 59 64 64 69 74 72 69 65 60 54 52 50 47
10 11 9 6 6 9 13 18 28 46 21 8 7 7 6 6 7 9 10 11 14 19 22 23 24 25 28 35 42 49 57 63 71 73 75 80 79 75 71 65 60 55 53 51
15 15 5 5 8 14 21 28 37 54 29 8 7 7 6 6 14 17 14 12 14 22 23 28 30 32 33 38 45 53 62 71 80 81 83 85 86 79 77 72 66 61 56 55
19 11 6 5 8 15 19 25 46 51 26 10 8 8 6 10 19 22 21 16 17 18 22 28 33 36 38 42 47 54 64 78 86 87 91 93 93 86 84 81 74 67 61 59
17 10 5 6 8 11 19 28 37 39 25 14 13 13 12 17 20 22 25 23 19 20 22 26 35 40 43 46 51 58 69 79 91 93 96 98 97 93 89 87 82 75 67 64
17 7 6 6 8 14 20 29 36 37 32 28 28 31 34 31 30 37 40 32 22 22 23 26 32 39 46 52 57 65 75 87 97 98 99 99 97 96 94 93 87 82 74 68
9 12 8 6 8 13 22 26 28 33 37 42 44 44 46 42 40 46 41 24 22 23 24 27 30 37 44 54 63 72 83 93 99 99 98 98 96 98 97 95 92 87 82 76
19 14 7 7 8 10 15 17 18 20 25 30 37 45 51 53 47 34 28 28 28 25 26 29 32 36 44 59 74 84 90 97 100 100 96 94 94 100 99 96 94 91 87 81
20 12 7 7 7 9 9 8 9 13 21 24 28 33 41 50 56 60 54 42 36 34 34 38 47 59 68 77 78 85 97 100 100 100 94 91 89 93 94 94 96 94 91 88
23 15 8 7 6 6 6 7 8 11 14 16 20 29 36 41 48 54 59 67 73 75 76 77 79 82 84 87 87 91 97 99 100 99 97 89 89 94 96 96 96 96 94 92

GFSNGP_500_rhum_285.txt.gz
RH
17 17 11 13 24 26 14 6 4 4 5 7 7 6 6 6 6 7 10 11 9 6 5 6 8 10 15 27 33 34 36 41 38 36 35 33 27 22 13 4 6 12 38 42
16 13 10 17 30 28 11 5 4 4 6 7 6 6 6 6 6 7 11 12 10 6 5 6 7 9 15 26 36 35 36 41 40 36 36 33 27 22 14 4 5 10 28 40
15 10 14 24 31 21 11 6 5 5 6 6 6 5 5 6 7 8 12 12 11 6 5 6 7 8 15 26 36 37 37 41 41 38 36 33 28 22 16 5 4 7 16 37
14 13 17 28 20 18 15 13 5 4 6 6 5 4 5 6 7 9 12 13 12 7 6 6 7 8 16 27 37 39 39 39 42 40 36 33 30 23 17 8 3 4 12 26
11 18 19 25 21 22 21 16 8 4 6 6 4 5 5 6 7 10 13 13 11 7 6 6 7 9 16 25 37 41 39 39 42 42 36 33 31 26 19 14 4 4 6 17
13 18 22 26 24 24 24 21 14 6 6 6 4 5 5 6 8 11 13 13 10 7 6 7 7 9 16 25 35 41 41 40 43 42 39 34 31 28 22 16 10 3 4 8
14 16 24 25 24 25 28 23 19 6 6 5 4 5 6 7 9 12 14 12 10 7 7 8 8 9 15 24 34 42 43 43 43 44 42 37 32 30 26 20 14 8 3 4
14 19 23 22 19 22 28 33 23 6 6 5 5 5 6 7 10 12 14 13 10 9 8 10 9 9 15 23 31 39 44 46 46 46 45 40 35 32 29 24 19 14 8 3
16 22 21 16 19 30 32 43 34 13 6 6 5 6 7 7 10 12 15 14 11 10 9 11 12 10 14 22 29 37 45 47 50 48 49 45 40 35 32 29 24 18 14 8
22 20 14 12 15 19 23 35 37 14 5 6 6 6 7 7 9 12 15 13 12 10 10 12 14 11 15 20 27 36 44 48 48 53 50 49 45 40 35 32 29 23 18 14
26 13 9 15 21 25 32 43 43 16 6 6 6 6 7 7 8 12 14 14 13 11 12 13 15 14 15 20 26 33 41 49 49 50 55 54 50 46 40 36 32 28 24 19
16 8 10 22 26 27 32 43 38 14 6 6 6 7 7 8 8 10 13 14 14 11 12 13 16 17 15 18 24 31 38 47 51 50 55 58 55 49 45 39 36 32 28 25
11 8 10 10 11 20 25 33 35 11 6 6 6 7 7 8 8 9 11 13 14 14 14 14 16 19 14 16 25 31 37 45 52 56 56 62 60 54 50 46 39 36 32 29
7 9 9 4 6 15 25 30 30 10 6 6 6 7 7 8 8 8 9 10 12 13 14 15 17 18 16 18 26 32 38 43 53 59 60 65 67 62 55 51 46 39 37 33
8 8 5 5 6 8 16 28 26 12 7 6 6 6 6 8 7 7 8 9 10 11 14 16 18 20 20 22 30 36 40 47 54 64 67 68 74 70 64 58 53 46 40 37
8 9 5 6 6 6 8 20 29 19 9 7 7 7 6 7 7 6 7 9 10 14 20 22 26 29 26 28 33 39 42 48 58 70 75 74 80 79 72 66 60 53 46 42
8 8 6 7 9 7 6 11 24 39 32 12 8 7 7 6 6 6 6 8 11 12 15 19 24 28 31 31 32 37 43 48 60 74 82 81 84 84 78 74 67 61 54 48
8 8 8 10 11 7 6 8 12 22 33 40 35 10 7 7 6 6 6 14 20 16 14 15 19 23 30 33 36 40 45 51 60 74 84 87 89 87 82 80 74 68 62 56
9 9 8 14 12 6 6 11 18 24 30 37 46 28 10 7 7 6 7 17 22 20 19 18 20 22 28 35 40 44 48 53 62 76 84 93 93 88 83 83 79 73 68 62
9 9 11 17 8 5 7 14 18 22 29 47 55 36 10 8 8 7 9 15 22 24 27 22 22 23 26 33 42 46 50 56 66 78 94 97 94 90 83 84 81 76 72 68
10 10 16 16 6 5 7 12 19 24 28 42 41 19 10 10 10 14 21 24 34 40 32 23 23 24 26 30 36 42 51 62 77 91 94 94 92 86 81 79 78 76 75 74
11 12 19 12 7 6 7 8 14 20 30 36 34 24 17 17 30 31 35 41 45 37 24 25 25 26 28 31 37 48 64 79 86 92 95 93 90 85 82 82 80 78 76 75
12 18 19 11 11 7 6 6 11 15 21 28 35 40 44 46 47 51 52 46 34 33 33 27 27 31 38 51 68 78 80 79 83 91 92 90 89 89 86 84 84 81 79 80
17 22 18 16 10 8 5 4 7 12 15 18 21 28 33 36 41 45 47 53 55 48 47 47 48 56 69 77 79 82 84 84 87 89 90 91 91 92 88 88 86 84 82 84
25 23 19 18 11 7 4 5 8 11 12 13 16 20 23 24 30 36 44 48 50 50 56 63 68 73 74 72 73 75 78 83 86 89 90 90 90 90 91 90 90 91 92 92
29 24 24 18 10 8 5 4 5 6 6 6 8 10 10 11 21 30 33 35 38 42 46 51 58 63 65 68 70 74 78 84 91 93 93 95 95 94 96 96 96 96 95 94
31 29 26 18 12 11 10 7 6 6 7 7 7 7 8 8 9 10 11 12 13 19 28 37 49 56 65 74 82 88 92 96 98 98 99 100 99 100 99 99 98 99 97 95

GFSNGP_500_rhum_288.txt.gz
RH
48 46 22 18 11 16 24 19 10 5 4 4 7 7 7 7 7 7 8 11 8 4 4 5 6 6 8 15 20 29 35 34 33 32 28 26 23 17 11 3 4 10 33 35
44 36 17 13 10 24 30 22 6 8 4 4 8 6 7 6 7 7 9 12 8 4 4 5 6 6 7 13 17 27 35 37 35 34 31 28 24 19 14 6 3 4 23 33
47 32 15 10 21 27 24 18 10 6 4 6 7 5 7 7 7 6 10 12 8 5 4 6 6 6 6 11 16 27 33 34 38 38 35 30 26 22 16 11 4 3 5 26
53 15 12 21 30 22 17 17 14 6 4 7 6 5 7 6 6 7 11 12 9 6 6 7 7 6 5 9 17 24 30 32 35 42 38 33 28 25 20 15 9 3 3 8
48 16 11 24 23 21 20 20 19 9 5 6 6 6 6 6 6 8 12 12 11 8 7 8 8 6 6 9 17 22 28 33 36 41 42 37 32 27 23 19 13 7 3 3
28 16 14 20 19 21 22 23 21 14 6 6 6 6 6 5 6 9 12 13 12 11 9 10 8 7 7 9 17 23 28 34 37 40 44 41 36 30 26 22 18 13 8 3
24 14 16 18 20 21 22 23 24 20 8 6 6 6 6 5 6 9 13 14 13 12 10 10 9 9 8 10 16 23 28 36 39 39 43 46 39 34 29 25 22 18 13 8
20 13 17 15 16 20 20 27 36 29 8 6 6 6 5 6 6 9 12 15 14 12 10 10 10 10 10 10 17 24 28 36 40 40 43 48 46 40 34 29 25 22 18 14
16 14 13 13 12 16 22 28 34 38 14 6 6 6 6 6 6 8 12 14 14 12 11 11 11 12 12 12 18 24 30 37 42 45 45 50 53 47 42 34 30 26 21 18
16 15 10 10 11 14 16 26 38 38 22 5 6 6 6 6 7 8 12 14 14 14 13 12 12 14 15 14 20 27 32 37 42 47 50 52 60 55 50 42 35 30 26 21
17 12 13 11 11 20 26 31 35 38 28 6 6 6 6 7 7 7 10 12 14 14 14 14 15 17 20 20 25 32 33 36 40 47 52 54 64 64 56 49 42 37 31 26
12 12 10 11 13 19 23 26 29 40 30 7 6 6 6 7 7 7 8 10 11 12 17 22 24 24 27 25 28 32 33 35 40 46 53 57 67 70 63 55 49 42 36 31
12 10 10 7 7 10 16 20 24 34 29 7 6 6 6 7 6 7 7 9 10 12 17 21 25 27 28 27 26 27 31 36 41 47 53 59 68 72 66 61 55 48 42 37
11 11 10 6 7 7 8 10 20 26 27 7 6 6 6 6 6 6 6 7 8 10 12 13 17 21 24 27 28 29 32 38 42 46 53 60 72 72 66 64 59 53 48 42
12 10 8 8 6 6 6 6 9 20 26 14 7 6 6 6 7 6 6 6 6 11 14 13 14 18 23 27 31 35 37 40 44 48 56 66 76 73 65 64 62 59 53 49
10 9 9 5 6 10 9 6 6 9 29 27 11 8 7 7 7 6 6 6 8 17 21 20 17 18 21 25 31 36 38 41 45 51 60 74 77 73 67 62 62 60 57 51
9 9 8 5 7 12 12 7 6 9 15 34 36 36 16 10 7 7 7 7 8 14 19 22 22 21 22 24 29 32 36 40 44 52 70 81 78 72 69 65 64 61 59 56
9 9 10 7 8 12 12 6 6 12 15 14 21 30 40 34 13 8 7 7 8 11 18 25 27 25 23 24 25 28 32 39 51 66 78 80 76 75 72 68 67 64 61 59
8 10 9 8 9 14 11 6 7 14 21 25 30 41 51 43 15 8 8 8 10 17 27 38 34 24 23 24 26 32 41 54 69 76 77 76 74 72 72 70 67 64 64 62
8 10 9 8 11 15 9 5 8 15 21 24 30 43 46 22 10 10 12 19 25 31 43 41 28 31 26 28 41 57 70 75 74 74 74 73 74 76 77 76 72 70 71 70
10 10 8 9 14 16 6 6 7 9 15 25 30 34 32 19 18 21 32 36 42 48 44 33 38 34 33 45 60 67 68 68 68 70 73 74 77 79 79 80 81 79 76 77
11 9 9 9 16 13 8 7 5 7 10 14 15 19 30 36 38 43 45 48 48 45 44 47 45 47 51 61 61 57 60 63 68 74 79 84 85 85 84 84 85 86 83 79
11 10 10 11 18 10 10 7 4 4 6 8 9 12 19 23 26 26 31 37 41 46 49 47 44 47 53 57 57 60 64 67 72 78 84 86 86 85 86 88 87 87 83 84
15 12 12 14 19 12 12 7 5 6 6 7 8 8 9 13 14 14 17 20 23 29 33 33 34 36 43 54 60 64 71 77 80 80 82 84 86 86 86 86 85 82 84 82
15 13 13 19 18 15 13 8 5 8 8 8 8 5 5 5 7 7 7 9 12 17 21 24 27 32 38 47 52 58 66 74 77 80 85 90 90 90 85 80 81 78 74 75
17 15 16 22 17 19 14 10 6 7 7 7 9 11 13 11 8 7 8 8 9 10 13 16 17 22 28 34 35 40 52 61 63 75 85 85 84 83 78 76 76 77 74 77
19 18 25 24 22 21 15 14 12 10 10 12 16 19 22 23 21 18 16 15 15 15 15 16 17 20 25 28 30 35 42 47 58 68 72 76 80 76 72 73 72 74 75 79